Theta_e
326 325 325 324 325 324 323 322 322 321 320 320 318 317 317 317 318 318 318 317 316 315 316 314 314 314 314 315 316 316 316 317 319 318 318 318 317 315 313 311 310 309 310 309 309 308 306 304 303 304 304 304 305 307 307 307 307 308 308 308 308 309 309 308 307 307 312 316 315 312 311 311 310 313 312 312 313 314 316 319 323 324 325 326 326
325 325 325 325 324 322 321 321 320 320 319 317 316 316 316 316 317 317 316 316 316 314 314 313 313 313 313 313 314 315 316 316 317 317 317 317 316 315 313 312 311 310 309 308 308 308 306 303 303 303 304 302 303 305 306 306 307 306 306 307 307 308 310 307 306 306 305 309 309 309 308 310 308 312 311 310 311 312 313 316 320 323 323 324 325
326 325 325 323 322 320 319 318 318 317 316 315 315 315 315 315 316 315 314 314 313 312 311 311 311 310 311 312 313 313 314 314 315 316 316 316 315 315 314 311 309 308 308 308 308 307 304 304 303 303 304 302 303 303 305 305 306 305 305 306 306 307 307 308 306 304 304 304 307 306 307 308 308 309 311 311 312 312 312 315 318 314 313 313 315
325 324 322 320 319 318 317 316 316 315 314 314 314 314 314 314 315 314 312 311 311 311 310 309 309 308 308 310 311 311 312 313 314 315 316 315 315 313 311 309 309 309 309 308 307 306 305 303 302 302 302 301 302 302 303 304 304 303 303 304 305 305 306 306 306 305 304 303 305 305 306 307 308 310 311 311 311 311 312 315 315 309 309 310 311
323 322 320 318 317 316 315 315 314 314 313 313 313 314 313 314 314 312 311 310 310 310 310 308 307 306 306 306 308 309 310 310 310 312 314 315 315 313 309 307 308 310 310 309 309 307 306 303 302 302 301 301 301 301 302 301 303 303 302 303 304 305 306 306 305 305 304 302 303 305 306 306 307 308 309 308 309 311 312 314 310 308 306 307 309
321 319 318 316 315 314 314 314 314 313 313 313 313 313 314 313 312 311 310 309 309 308 308 308 307 305 304 305 307 307 308 307 307 308 311 314 313 310 310 310 311 311 310 309 308 307 305 304 302 302 301 300 300 301 301 301 302 301 301 302 302 303 303 304 305 304 303 303 302 302 304 304 304 306 307 308 307 307 308 312 309 307 305 303 305
319 318 316 315 314 313 313 313 313 313 313 313 313 314 314 313 312 310 310 309 308 308 308 307 306 304 304 305 306 305 304 304 305 306 308 309 309 309 309 311 311 311 310 309 307 305 303 303 302 301 301 300 300 300 300 300 301 300 301 301 301 301 303 303 303 303 302 302 302 302 302 304 304 303 306 307 306 306 304 306 306 306 304 302 301
318 316 315 314 313 313 313 313 313 314 313 313 313 314 314 312 311 311 310 309 309 308 307 305 304 303 303 303 304 304 303 302 303 306 307 306 309 308 308 308 309 310 310 307 306 304 303 302 302 302 301 300 300 300 299 300 300 299 299 300 300 300 301 303 302 302 302 301 300 300 301 301 302 304 306 305 302 302 303 304 303 303 304 303 301
316 315 314 313 313 313 313 314 314 314 314 313 314 314 313 311 310 309 309 308 309 307 305 303 303 302 302 301 301 301 301 301 302 303 304 304 304 303 302 302 303 303 303 303 303 303 302 301 302 303 305 308 306 303 302 302 300 298 299 298 300 299 300 302 301 301 301 300 299 300 299 300 301 301 302 301 299 299 301 302 301 302 304 302 301
316 315 314 313 313 314 314 314 313 313 312 313 313 312 311 310 308 307 307 306 306 305 304 303 302 301 300 300 300 299 299 300 304 302 304 303 302 301 301 300 300 300 300 299 299 300 300 300 303 307 306 306 305 300 298 298 301 300 299 298 297 297 298 300 300 300 300 299 298 298 297 297 299 300 301 302 302 301 299 299 298 299 299 300 300
316 315 314 314 314 314 313 313 313 312 312 312 311 310 310 309 307 307 306 306 305 304 302 300 299 298 298 298 297 297 298 299 297 296 297 299 301 300 299 298 297 298 297 296 296 298 297 298 298 302 304 306 301 300 297 297 297 297 298 299 300 297 297 298 299 299 299 298 298 297 297 297 298 300 301 302 301 300 298 298 297 297 296 294 293
315 314 314 314 314 313 313 312 312 311 311 310 310 310 309 309 307 306 305 304 303 301 299 298 297 297 297 297 297 297 296 297 294 295 295 296 299 299 297 297 296 295 294 294 294 294 295 296 297 298 299 303 301 297 299 300 298 297 297 297 297 295 295 297 298 298 298 297 297 296 296 296 297 299 300 301 300 300 299 298 297 296 295 294 294
314 313 314 313 313 313 313 312 312 311 310 310 309 309 308 308 307 306 304 303 301 300 298 297 296 296 297 296 296 296 295 295 294 294 294 294 295 297 295 295 294 293 292 292 292 292 293 296 297 297 298 304 302 297 297 298 301 299 299 298 299 298 294 294 295 298 299 297 296 296 295 296 297 298 300 300 302 299 299 298 297 297 296 295 295
314 313 313 313 312 312 312 312 311 311 310 309 309 309 308 307 306 305 304 302 300 299 297 297 296 296 296 296 295 295 294 295 294 294 294 293 293 295 294 294 294 293 293 292 292 292 292 294 294 296 296 297 297 297 299 296 295 296 297 296 296 298 297 296 295 295 297 298 297 295 296 297 296 296 298 299 301 300 299 298 298 297 296 296 297
313 312 312 312 312 311 311 311 310 310 310 309 309 308 308 307 305 304 302 301 299 298 297 296 296 296 296 296 296 295 296 294 293 293 293 293 293 294 294 295 294 293 293 293 293 292 292 293 293 294 295 295 297 296 298 296 295 296 296 296 296 296 295 296 296 296 296 297 297 297 297 297 296 295 296 298 299 301 302 301 300 300 299 299 298
312 312 311 312 312 312 311 311 310 310 309 309 309 308 307 306 304 303 301 300 299 298 297 296 295 295 295 296 296 294 293 293 293 293 294 294 295 296 294 293 292 292 292 292 293 293 293 292 292 294 293 294 295 294 298 298 297 296 296 295 295 296 296 298 295 295 297 296 296 296 296 296 295 295 295 296 298 300 302 301 300 299 298 296 294
311 312 311 312 312 311 311 310 310 310 309 308 308 307 306 304 303 302 300 299 298 296 295 294 294 295 296 297 296 295 293 294 293 294 293 293 294 294 293 293 292 291 291 291 291 294 295 294 291 291 292 292 294 292 294 297 295 295 295 294 295 295 295 297 297 295 294 294 293 293 293 294 294 294 294 294 296 299 299 298 296 296 295 294 294
311 311 311 312 312 311 311 311 310 309 308 308 307 306 305 304 303 302 300 298 297 295 295 294 293 294 296 296 297 296 294 294 294 294 293 293 295 293 292 292 291 291 291 291 291 292 296 300 298 291 291 291 292 292 294 297 294 294 294 294 293 293 294 295 296 296 295 295 294 294 294 294 294 295 295 295 295 297 298 295 297 296 295 295 294
311 311 311 311 311 311 311 311 310 309 308 307 307 305 304 303 301 300 299 298 297 296 295 293 293 293 294 297 302 298 296 295 294 293 293 294 295 292 292 291 291 290 291 291 290 291 291 295 297 294 293 292 291 291 292 295 293 292 292 293 292 292 292 293 294 293 294 294 294 295 294 296 297 296 297 295 296 297 296 296 297 296 294 294 294
311 311 311 311 311 311 311 310 310 309 307 306 306 305 304 302 300 298 297 296 295 294 293 293 292 292 293 297 299 297 296 293 293 293 293 293 294 294 292 292 292 290 291 293 291 290 290 291 294 291 290 291 291 291 291 292 293 291 292 293 291 291 292 294 296 294 292 293 292 293 293 294 295 296 296 296 297 297 295 295 296 297 296 294 293
311 311 312 311 311 310 310 309 309 308 307 306 305 304 302 300 299 297 296 295 294 292 292 292 292 291 292 293 295 294 296 294 292 292 293 293 293 293 291 290 289 290 289 290 289 290 290 290 290 292 290 291 291 291 291 292 293 293 290 291 292 293 293 293 295 296 292 293 293 293 293 293 293 294 295 296 296 296 296 295 295 295 295 294 293
311 312 312 311 311 310 310 309 309 308 307 305 303 301 299 299 298 296 295 294 292 291 291 291 291 291 291 292 293 294 297 297 292 292 292 292 292 293 293 290 290 291 290 290 289 289 287 288 289 291 290 290 290 291 291 291 292 295 290 292 292 292 295 293 292 292 292 292 291 292 292 292 292 292 294 294 295 296 295 295 295 294 294 294 293
311 311 311 311 310 310 310 309 308 307 306 304 301 298 297 297 296 295 293 292 291 290 290 290 290 290 290 289 290 291 291 294 294 291 292 291 291 291 292 291 292 292 290 289 287 286 288 287 290 293 290 290 290 290 291 291 292 290 290 290 291 291 293 292 291 292 291 291 291 290 290 290 290 290 291 292 293 294 294 294 294 294 295 295 295
310 309 309 309 310 309 309 308 307 306 304 302 299 296 296 295 294 294 293 292 291 290 289 290 290 290 290 289 290 289 288 289 292 292 291 290 290 290 290 291 292 291 291 288 286 287 287 287 289 290 290 290 290 290 290 290 290 290 290 291 291 292 293 291 290 291 290 290 290 289 289 289 290 290 290 291 292 292 293 293 293 294 294 294 295
309 308 309 309 309 309 308 307 306 305 303 301 298 296 294 294 292 292 292 291 291 290 288 290 289 289 289 289 288 287 288 288 288 290 291 291 290 290 290 290 290 290 291 290 288 288 289 290 290 290 290 290 290 290 290 290 290 290 290 291 295 290 291 289 289 290 289 288 288 289 289 290 289 289 290 291 292 294 293 293 293 293 293 293 294
307 307 308 307 307 307 306 305 305 304 302 301 298 296 294 294 292 292 292 291 290 290 289 289 289 289 288 287 287 287 287 286 286 287 293 294 292 291 290 291 293 292 292 290 291 290 290 290 290 290 290 290 290 289 288 289 290 290 290 292 289 288 288 289 288 289 287 287 287 287 287 287 288 290 289 289 291 291 291 291 292 292 292 292 292
306 306 306 306 306 306 304 303 303 302 301 300 298 297 295 293 292 291 290 289 289 289 289 289 289 289 288 287 287 287 286 286 286 286 285 285 285 287 288 292 293 292 292 289 291 289 290 291 289 289 289 289 289 289 289 289 289 288 287 287 288 287 287 287 287 289 288 287 287 287 287 290 290 290 290 290 290 290 290 289 290 290 291 290 290
306 306 305 305 304 304 302 296 300 301 300 299 297 295 294 293 291 290 289 289 289 289 289 289 289 289 288 286 287 287 285 285 285 285 286 286 285 285 287 288 286 286 288 286 286 289 287 290 289 288 287 288 287 287 286 287 286 286 286 285 286 287 291 293 291 287 285 286 286 286 287 288 288 288 288 289 288 289 289 289 289 289 288 288 289
302 301 302 302 301 300 301 300 298 296 293 291 290 292 293 292 291 289 289 290 291 291 290 290 290 289 288 288 288 287 285 287 289 287 285 288 285 287 287 285 285 286 290 290 289 288 286 287 285 285 284 284 283 285 285 285 284 286 286 285 286 286 286 285 287 284 285 286 286 285 285 286 287 287 287 288 288 288 288 289 288 288 288 289 287
300 300 300 299 298 298 297 296 295 294 293 292 291 289 287 288 289 289 290 292 292 292 292 291 291 289 287 285 287 288 290 290 289 287 288 289 289 289 289 289 288 288 290 289 288 284 283 282 281 281 283 283 282 281 282 283 284 284 284 285 284 285 285 284 283 282 283 284 284 285 285 285 286 286 287 287 288 288 288 288 287 288 287 287 286
299 298 298 297 296 296 295 295 294 293 293 292 291 289 287 288 288 288 290 291 291 291 291 292 291 290 291 288 285 289 290 289 288 289 289 289 288 289 288 289 289 289 289 288 283 282 281 282 281 280 280 281 280 280 280 281 279 282 283 282 282 283 282 283 283 281 282 282 283 281 281 284 283 284 286 285 286 287 287 286 287 287 287 286 286
298 297 296 295 294 294 294 293 292 292 291 291 290 289 289 287 286 288 288 289 291 291 291 290 290 290 291 290 288 284 288 289 289 289 289 289 289 288 289 289 289 289 289 288 283 279 280 281 280 282 282 282 282 282 281 281 280 280 280 283 282 281 281 281 281 281 282 283 282 281 281 282 281 281 282 282 283 284 284 284 284 285 285 285 286
297 296 295 294 293 292 292 292 291 291 290 289 289 289 289 288 287 285 286 288 288 289 289 290 290 289 289 289 290 289 288 288 288 289 289 289 288 288 289 289 289 289 289 286 283 280 281 282 282 281 281 281 282 282 282 282 281 282 280 281 281 281 281 280 280 281 281 281 281 279 279 280 280 281 280 280 282 282 282 282 283 283 283 284 283
297 296 294 294 293 292 292 291 291 290 290 289 289 289 289 290 288 287 287 286 287 287 288 289 289 289 289 289 289 289 289 288 288 288 288 288 289 289 288 287 290 290 289 284 284 282 282 282 282 282 282 281 281 281 282 283 282 281 281 281 281 281 280 280 281 281 280 280 281 279 279 280 280 282 280 279 280 280 281 282 282 282 283 283 283
296 291 289 291 293 292 291 291 290 289 288 288 287 287 287 287 288 289 289 288 287 286 283 283 287 288 286 288 288 288 288 288 288 288 288 288 289 289 289 289 286 285 286 284 286 284 283 284 283 282 281 282 281 280 282 283 282 281 281 282 281 281 280 280 280 280 279 280 280 279 279 280 280 280 280 281 281 281 280 281 283 282 283 282 283
295 294 293 292 292 291 290 290 290 289 288 287 286 286 286 286 287 287 287 287 286 284 281 283 282 287 288 287 287 287 287 287 288 288 287 287 288 289 285 282 284 283 284 283 283 283 283 284 283 283 282 282 281 281 280 281 281 282 281 281 279 280 279 280 279 278 277 277 277 278 279 277 277 278 279 279 280 280 279 280 280 280 280 282 279
295 294 294 293 292 291 290 290 290 289 286 286 285 285 285 285 285 285 285 285 283 282 283 282 282 283 284 283 282 284 287 287 288 288 288 287 287 286 285 285 286 284 283 284 282 282 283 283 283 283 282 282 282 281 281 281 280 280 283 280 280 280 279 279 278 277 277 278 276 276 276 277 276 277 278 279 277 277 279 279 279 280 280 281 282
296 295 294 294 293 292 291 290 288 286 286 287 287 287 286 285 284 284 283 282 282 282 282 281 284 282 283 282 290 284 282 287 288 288 287 286 282 283 283 284 284 285 284 283 285 284 284 283 284 284 283 282 283 282 281 282 280 279 280 281 280 280 284 278 280 278 276 275 276 276 277 276 275 275 277 278 277 277 278 278 277 278 279 281 281
297 291 289 289 290 292 291 288 287 287 287 286 287 286 284 284 283 282 282 282 281 281 281 281 281 280 281 281 284 287 285 283 283 281 280 280 280 282 283 283 284 283 284 283 283 283 285 284 283 283 283 282 282 282 282 282 280 278 279 278 279 279 278 277 278 276 276 276 278 277 276 277 276 275 274 275 277 275 276 276 276 277 278 278 279
294 292 289 289 291 290 289 288 288 287 286 286 286 285 284 283 283 282 281 281 281 280 280 281 280 281 279 279 281 282 284 281 279 279 278 280 280 282 284 283 283 283 283 282 282 282 283 283 283 283 283 282 282 282 281 282 282 279 278 276 278 278 276 274 276 276 279 275 276 278 278 279 278 274 274 274 275 273 276 278 278 275 275 276 277
294 293 289 290 289 290 289 288 288 287 286 286 285 285 284 283 283 282 281 281 280 280 280 280 281 279 280 281 285 284 281 281 280 280 279 281 281 283 282 282 282 283 282 282 282 282 283 282 281 282 283 282 281 281 280 280 279 278 278 277 276 277 275 274 273 273 274 275 274 275 275 275 276 277 282 278 280 277 275 276 276 276 276 276 275
294 293 292 291 289 290 289 288 288 286 286 285 284 285 284 284 284 283 282 281 280 280 280 280 280 280 282 286 286 286 281 280 280 281 281 281 281 282 282 282 282 283 283 283 282 283 282 282 281 281 280 280 278 278 276 278 279 279 277 276 277 276 276 276 275 275 274 275 273 274 275 275 275 275 276 283 276 275 275 275 274 275 275 275 276
294 294 293 291 293 291 290 289 288 287 286 286 285 285 285 285 285 283 282 281 282 281 281 281 281 281 281 284 284 284 281 280 283 283 282 280 281 281 281 282 283 283 283 283 283 283 283 281 282 280 280 280 281 280 280 280 278 277 277 278 278 277 278 277 275 275 274 273 275 275 275 275 276 275 274 277 275 275 275 275 276 275 276 275 276
294 293 293 292 293 292 290 290 288 288 288 287 286 286 286 286 286 284 283 282 282 282 282 282 282 282 281 282 283 283 283 282 282 282 283 281 281 281 283 283 282 282 282 282 282 282 282 281 281 280 280 280 280 281 280 280 279 278 278 278 278 278 277 277 278 278 277 277 277 276 275 275 276 275 277 278 275 277 276 275 276 276 275 275 274
295 294 293 293 293 291 290 288 288 287 287 287 287 286 286 287 286 284 283 283 283 283 283 283 283 283 282 282 283 284 283 283 282 282 282 282 283 283 282 282 282 283 282 283 283 283 282 281 281 279 279 280 280 281 280 279 279 279 279 281 280 279 280 280 281 281 279 279 279 278 277 276 277 275 277 276 276 276 277 277 278 279 277 276 275
295 294 293 293 292 291 290 290 287 288 288 288 288 287 286 286 286 285 284 283 283 284 284 284 283 283 283 283 283 283 283 283 283 283 283 282 283 283 282 283 284 284 284 284 283 282 282 282 281 281 282 282 282 282 281 281 281 280 280 281 282 283 283 282 280 278 277 278 279 279 280 277 277 277 279 277 276 276 277 277 275 277 279 280 279
295 295 294 293 292 292 291 290 288 288 289 288 288 287 287 286 286 285 285 285 284 285 285 284 284 283 284 283 283 283 283 284 284 284 284 284 284 284 284 283 284 285 284 284 281 282 282 282 282 283 283 284 283 283 283 282 282 281 282 282 281 282 281 279 280 280 280 280 280 280 279 279 280 279 279 278 276 276 277 278 278 279 278 278 279
294 294 294 293 293 291 290 289 289 287 289 288 288 287 287 287 286 286 285 285 285 285 285 285 284 284 284 283 283 284 284 284 285 284 284 284 284 284 283 284 286 286 285 285 283 283 283 283 283 283 283 284 283 283 283 283 283 282 283 283 283 283 283 280 280 281 280 280 279 280 280 280 280 280 279 279 279 278 278 279 278 277 278 278 278
294 294 294 294 292 291 289 289 289 289 289 288 287 287 287 287 286 286 286 286 286 286 286 286 286 285 285 285 284 285 284 283 283 284 284 284 285 285 284 284 285 285 285 285 285 284 284 284 284 284 284 284 284 284 284 284 284 283 284 283 283 281 281 281 281 283 281 282 280 280 279 280 281 281 281 280 281 280 280 279 279 280 279 278 278
294 294 294 293 292 291 289 289 289 290 289 289 288 287 286 286 286 286 286 286 285 286 286 286 286 286 286 285 285 284 284 284 285 285 285 286 285 285 285 285 285 285 285 285 285 285 285 284 284 284 285 284 284 284 283 283 283 283 283 284 281 281 280 280 280 280 282 281 282 282 282 281 281 281 281 281 281 281 280 281 281 281 280 280 280
293 293 294 293 292 291 290 290 289 289 290 289 288 287 286 286 286 286 286 286 286 286 285 286 286 285 284 284 284 284 285 286 286 285 285 285 285 285 285 285 285 285 285 285 285 285 285 284 283 283 283 283 283 282 282 282 282 282 282 282 281 281 281 280 283 281 280 279 280 281 281 282 282 282 282 282 281 281 282 283 282 282 281 282 282
Wind_Speed
11 9 6 7 9 9 8 8 8 7 8 8 9 8 8 7 7 6 6 6 5 5 5 4 4 4 4 4 5 5 5 6 5 5 5 4 4 5 6 6 6 5 5 6 6 6 6 5 6 5 5 5 5 5 5 5 4 4 4 3 3 5 6 6 7 8 6 5 6 7 9 9 9 8 10 10 11 11 11 8 8 7 8 7 8
10 9 8 7 9 9 8 7 8 7 9 9 9 8 7 7 7 6 7 5 6 6 5 4 4 4 4 5 6 5 6 6 4 5 4 4 6 5 4 5 5 5 5 6 6 5 5 5 6 6 5 4 5 6 6 5 5 5 6 5 5 5 6 5 5 6 9 7 8 8 9 8 8 8 9 11 11 10 11 10 8 8 8 9 9
10 10 9 9 9 9 9 8 8 9 10 8 9 8 7 7 6 7 7 6 5 5 5 5 4 4 4 5 6 6 6 5 4 4 5 6 5 4 4 4 4 4 5 5 5 4 5 5 6 5 5 5 5 5 5 6 6 6 6 5 6 6 6 5 6 6 8 7 6 8 9 9 7 9 10 9 9 8 8 9 8 9 9 10 10
7 9 9 9 10 10 9 8 9 9 9 8 9 8 7 6 6 8 7 6 7 4 4 5 4 4 4 5 6 6 5 4 5 5 5 5 5 4 4 4 4 4 5 5 5 4 4 4 5 6 6 6 6 6 6 5 6 5 5 5 5 6 5 5 5 5 4 6 7 8 9 9 8 9 8 9 8 8 7 7 7 9 9 9 10
7 10 11 11 10 10 9 9 9 9 9 8 9 8 7 7 7 8 8 7 6 6 4 4 4 4 5 4 6 4 4 5 4 5 4 4 4 4 4 4 4 4 4 4 4 4 4 4 5 5 6 6 7 7 7 7 6 6 6 6 6 6 5 5 5 5 5 6 8 7 8 7 7 7 9 10 10 8 8 6 8 8 9 9 9
9 10 10 11 10 10 9 9 10 10 10 9 9 8 8 8 8 6 7 7 6 5 4 3 4 5 4 4 5 5 6 5 5 4 4 4 4 4 4 4 4 4 4 3 3 3 3 4 4 5 6 7 7 7 7 8 6 7 7 7 7 6 6 6 7 7 7 6 6 7 8 10 10 8 10 10 10 9 8 5 5 8 9 11 11
10 10 10 11 10 10 9 9 10 9 9 9 8 7 8 8 9 8 6 7 6 5 4 6 3 4 4 4 5 5 5 6 6 5 4 3 3 3 4 4 4 4 3 3 3 3 2 2 3 4 5 6 7 7 7 8 7 8 8 7 6 6 6 7 7 6 5 6 5 6 6 7 7 10 10 10 8 8 10 9 6 6 7 10 11
11 10 10 10 10 10 9 9 9 9 8 8 7 7 8 8 8 7 6 7 6 5 6 5 3 4 4 5 5 5 6 6 5 5 5 4 4 4 4 4 5 4 3 2 2 2 2 2 2 2 2 3 4 5 6 6 6 8 8 7 7 7 7 6 6 6 6 6 7 7 7 8 8 7 6 8 9 9 10 9 9 9 7 7 9
12 11 10 10 9 9 9 8 8 8 9 8 8 8 8 8 7 6 6 6 5 5 5 5 6 6 5 5 6 5 5 4 3 4 5 5 5 6 5 5 4 3 3 3 3 3 3 3 3 1 3 5 5 5 5 5 5 7 8 8 9 7 7 6 7 6 7 7 7 6 7 8 9 11 11 12 13 11 10 9 7 8 7 5 7
13 12 11 10 10 10 10 9 9 9 8 8 8 9 9 8 7 7 6 6 5 5 5 5 6 5 6 6 5 5 4 3 5 9 7 5 5 5 5 5 4 3 3 3 3 4 3 3 4 7 6 6 5 6 7 7 7 5 5 6 8 7 7 7 7 8 8 8 9 8 8 8 10 11 10 9 8 8 10 10 10 9 8 6 4
12 12 12 11 11 10 10 9 9 9 7 8 8 9 9 8 8 8 7 6 6 5 5 6 5 5 5 5 5 5 4 4 9 10 11 9 6 6 6 4 3 4 3 3 3 4 4 3 3 4 5 5 3 6 6 7 8 10 11 10 8 7 7 8 7 7 7 7 7 7 6 7 8 10 9 9 8 8 8 8 8 8 9 9 9
13 12 12 12 11 11 10 10 9 8 8 8 8 8 8 9 8 8 7 7 6 6 6 5 5 5 5 5 6 5 4 6 10 11 11 10 8 6 5 4 4 3 3 3 3 3 4 4 3 3 3 3 2 3 4 5 7 9 9 10 11 12 10 7 7 7 8 7 8 8 7 7 7 8 8 8 8 7 8 7 9 9 9 9 8
13 13 12 12 11 10 10 10 10 9 8 8 8 8 8 9 9 8 7 6 6 6 5 6 5 4 6 7 6 5 5 7 11 12 11 11 10 8 5 4 5 4 3 3 3 3 3 4 4 4 3 6 4 3 2 2 5 6 7 8 9 11 11 13 12 8 5 6 7 8 9 8 7 6 8 8 6 6 6 7 7 7 7 8 8
13 13 12 12 12 11 11 11 10 9 9 9 9 9 9 8 7 7 7 7 7 6 5 5 4 5 6 7 6 5 5 7 12 12 11 11 10 8 5 5 4 4 4 3 3 3 4 3 4 4 4 4 4 4 2 2 3 4 5 5 5 7 9 12 12 12 9 6 7 8 8 8 7 7 8 7 7 6 6 6 6 7 8 8 7
13 13 13 12 12 11 11 11 11 10 10 9 9 8 9 8 8 7 7 6 6 6 6 6 4 5 6 6 7 5 4 8 11 12 12 11 10 8 5 5 5 4 4 4 4 3 3 3 2 3 3 4 4 4 3 3 3 5 6 6 6 5 5 6 7 6 6 6 6 6 6 7 7 7 6 6 5 5 4 4 4 4 3 1 7
12 12 13 13 13 13 12 11 10 10 10 10 9 9 9 9 8 7 6 6 5 5 4 4 5 6 5 6 7 6 4 7 10 11 11 10 10 6 5 5 5 4 5 4 4 4 3 3 3 4 3 4 7 8 5 4 6 6 7 6 6 6 6 3 6 7 7 6 6 6 5 6 8 9 10 9 7 6 5 4 5 5 5 9 10
12 12 12 13 13 13 12 12 11 10 10 10 10 9 9 9 8 7 7 5 5 5 4 4 3 6 6 6 7 5 4 4 7 9 9 9 8 6 5 6 5 5 5 4 4 4 4 3 3 3 4 4 6 6 8 9 6 6 6 5 5 5 6 6 8 10 11 11 10 11 12 11 12 16 17 18 13 8 4 7 8 6 6 9 8
13 13 13 13 13 12 11 12 12 11 10 10 10 9 9 8 8 6 7 6 6 5 4 5 3 4 7 7 7 7 4 3 5 7 8 8 7 6 5 6 5 4 4 4 4 5 6 11 7 4 5 4 4 9 8 9 6 5 5 5 6 6 6 5 4 6 8 8 10 11 12 13 13 13 16 16 16 12 9 9 6 4 7 5 6
13 13 12 11 11 11 11 11 11 11 11 10 10 10 9 8 7 7 6 6 6 5 4 5 4 3 3 6 8 8 5 3 3 6 8 8 6 4 6 6 6 4 5 5 4 5 5 7 10 7 5 5 11 10 9 7 6 4 4 5 4 5 5 5 7 7 8 8 9 9 10 11 9 9 10 16 17 13 9 7 6 6 7 7 6
8 10 12 12 10 9 9 10 10 11 12 10 10 10 9 9 9 8 6 6 6 5 4 5 6 4 3 5 6 6 6 3 3 6 7 7 7 5 4 7 6 4 4 4 6 6 5 6 7 9 9 11 11 11 9 8 6 4 4 5 4 4 3 5 6 5 6 6 6 7 7 7 8 8 9 11 11 11 10 9 8 6 6 5 7
12 11 11 10 10 10 9 9 11 11 11 12 11 9 9 9 9 9 8 6 7 6 5 5 6 5 4 4 5 4 4 5 4 7 7 7 8 8 5 5 4 4 4 5 5 6 6 6 5 8 9 11 11 11 10 8 6 4 3 3 1 0 2 6 6 7 5 5 6 6 7 7 8 8 9 9 9 9 9 9 9 8 7 6 5
11 12 12 11 11 10 10 10 11 10 11 11 10 9 7 9 9 9 8 7 8 7 5 5 6 6 5 4 4 4 3 6 4 5 7 7 8 8 6 3 2 5 6 5 5 5 4 4 4 6 9 11 11 11 10 9 9 5 3 4 4 7 5 3 4 5 6 6 6 7 8 8 8 8 8 8 9 9 8 8 8 8 8 7 6
9 8 10 11 12 11 10 12 10 10 10 11 12 10 7 8 8 8 9 8 8 7 6 5 7 7 6 5 4 3 3 3 5 4 6 8 8 8 6 4 3 3 7 5 4 3 2 3 3 5 10 11 11 12 11 10 8 5 5 6 8 9 6 5 4 6 7 7 7 8 7 7 7 8 7 7 7 7 8 8 8 8 8 8 8
11 9 7 9 11 11 11 11 11 11 11 11 11 10 8 7 7 7 8 8 8 7 5 5 7 7 7 6 4 4 3 3 4 5 5 8 8 7 6 4 5 4 5 5 3 3 4 3 2 6 10 10 11 12 12 10 6 6 7 9 9 8 5 4 5 6 6 7 7 7 7 6 6 7 7 6 6 5 6 6 7 8 9 8 10
11 11 9 9 10 10 11 11 11 11 11 11 11 9 8 8 7 5 7 7 8 8 6 5 7 7 7 7 5 3 3 3 3 4 7 8 8 7 7 7 5 5 5 2 2 2 3 4 6 10 9 10 10 10 10 10 10 10 10 10 8 6 5 4 4 6 6 6 6 6 6 6 5 3 5 5 4 5 4 6 5 7 7 8 9
11 11 10 9 9 11 12 11 11 11 10 9 11 10 10 8 8 7 7 7 7 7 7 6 6 7 7 6 6 5 2 3 3 2 3 5 5 7 7 8 9 9 8 6 6 6 6 7 10 10 10 8 6 6 5 5 9 11 12 9 6 6 3 5 4 5 5 4 5 6 5 5 5 5 3 4 7 7 5 5 6 8 7 7 9
11 10 10 10 10 11 12 10 9 9 9 8 8 8 8 8 8 8 7 7 6 6 7 7 7 7 7 6 5 4 3 2 2 3 2 4 4 3 4 6 7 8 6 4 5 4 6 6 5 6 6 9 8 6 6 6 7 8 7 6 6 5 4 4 4 4 3 5 5 5 4 5 4 6 7 7 7 6 6 4 6 6 5 5 8
10 10 10 10 9 10 10 13 12 8 7 8 8 6 5 7 9 9 9 8 8 7 7 7 8 8 8 7 6 5 3 2 2 3 2 3 3 3 4 4 4 6 6 3 3 3 4 4 6 5 5 7 7 6 6 6 6 5 6 5 5 4 4 4 4 4 2 2 2 3 4 5 6 6 6 6 6 6 5 6 5 6 6 3 7
10 10 10 10 9 9 10 9 9 9 8 7 6 4 5 6 6 4 1 5 10 11 8 7 7 6 8 8 8 6 4 4 5 3 2 2 3 5 5 5 6 4 5 6 4 3 5 6 6 6 6 5 6 6 6 6 6 6 5 5 5 5 5 5 6 3 2 4 6 5 6 6 6 6 6 6 7 6 6 6 6 6 6 7 9
10 10 9 10 9 9 9 9 9 9 9 8 8 7 10 11 5 5 7 3 4 7 11 9 9 8 7 3 2 5 8 6 5 5 2 3 3 2 2 2 4 4 5 6 5 6 5 4 4 3 4 5 5 5 5 5 6 6 6 4 4 5 4 5 4 2 2 5 3 5 4 5 6 5 6 6 6 6 6 6 6 5 6 7 8
9 8 9 9 9 10 9 9 8 8 8 9 8 8 6 8 12 10 4 3 4 6 3 6 12 11 10 7 1 3 2 5 8 5 4 2 2 1 1 3 5 9 10 7 4 4 4 4 2 3 3 3 3 2 2 4 3 4 4 4 4 5 3 4 3 2 2 4 5 3 3 4 3 3 6 4 5 5 6 6 5 6 6 6 7
9 8 8 8 9 9 9 10 9 8 7 7 8 8 8 8 6 10 11 7 6 5 5 6 7 5 4 6 7 2 3 4 5 4 3 2 1 2 3 6 7 6 3 8 6 3 3 5 2 1 1 4 1 0 1 3 2 2 2 5 5 5 4 3 2 1 1 4 4 3 3 4 3 3 3 3 4 5 5 5 5 6 6 5 6
10 9 8 9 8 9 9 9 9 8 9 7 6 7 8 8 8 5 7 11 12 9 8 7 7 2 3 4 3 7 10 8 6 4 3 2 3 4 5 6 8 9 8 6 6 3 2 5 5 3 2 3 1 1 1 1 2 3 3 2 2 3 3 2 1 3 2 3 4 3 2 3 3 3 3 2 3 3 3 4 3 3 4 5 3
11 10 9 9 9 7 7 8 8 7 7 8 8 7 7 7 7 7 7 4 6 8 9 8 5 5 3 4 7 6 8 8 6 4 3 3 5 6 8 4 6 4 5 7 6 5 3 4 3 3 3 2 2 1 1 1 0 1 2 2 1 1 2 2 3 4 3 3 4 2 1 1 2 5 4 3 2 2 2 1 1 2 2 2 2
8 10 15 11 8 8 7 7 8 7 6 6 7 7 7 6 8 9 9 9 8 7 4 2 3 4 3 4 5 8 8 6 5 4 3 3 5 8 9 7 3 2 3 2 5 6 6 5 5 4 4 4 4 2 2 1 0 1 2 1 1 2 2 3 3 2 3 3 5 3 2 1 1 2 5 5 3 2 1 1 1 1 1 0 1
9 8 8 10 8 7 7 7 7 8 7 6 6 6 7 7 7 6 5 6 7 7 4 3 3 3 4 3 4 5 6 5 5 4 4 4 6 9 6 4 4 3 3 2 3 4 4 6 6 5 4 4 3 3 3 2 1 0 0 1 2 1 1 2 2 2 2 3 2 1 2 2 2 3 3 3 2 4 4 3 3 2 2 2 1
8 8 7 7 7 7 7 6 6 7 6 7 7 7 6 6 5 5 6 6 7 5 6 5 4 3 2 0 1 2 4 4 4 5 4 4 5 4 6 7 7 5 4 4 3 3 4 4 4 4 4 4 5 4 3 4 2 1 1 0 1 2 1 1 0 1 2 2 2 2 2 1 1 1 2 5 2 1 0 0 1 3 4 3 3
8 8 7 8 7 8 8 6 7 8 8 6 6 7 7 5 5 6 7 7 7 8 7 6 5 7 8 7 4 4 3 3 5 3 4 5 3 4 5 7 6 7 7 4 6 6 6 4 4 5 6 5 6 4 4 4 3 2 2 1 1 1 2 1 1 1 1 2 1 1 1 1 1 1 3 4 5 3 1 1 2 3 1 3 3
7 10 13 13 9 8 7 8 8 7 6 6 7 7 8 7 6 5 5 6 6 6 6 6 7 7 7 4 4 2 3 1 1 2 1 0 0 4 6 5 6 4 5 5 4 4 5 6 6 4 4 4 4 4 4 4 3 3 3 2 2 0 1 1 1 0 2 2 1 0 0 0 0 0 1 2 1 2 3 4 3 4 5 4 5
7 6 8 12 8 8 8 8 8 7 7 8 6 5 6 6 6 7 6 6 6 6 6 7 7 7 4 3 4 4 4 4 2 2 1 2 3 4 5 6 5 6 6 4 4 6 5 5 5 6 6 4 5 5 5 4 4 3 3 3 4 3 3 2 2 2 1 2 1 1 0 0 0 1 1 1 2 3 1 1 1 2 3 4 4
7 8 7 7 9 8 7 7 7 7 7 6 7 7 6 6 5 5 6 6 6 6 6 6 6 4 4 4 4 5 6 4 3 2 3 4 5 5 4 4 5 5 4 6 5 5 5 5 5 6 5 6 5 4 4 4 3 3 4 4 3 4 3 3 3 3 2 1 2 1 1 1 1 1 1 2 3 3 2 1 1 1 1 2 3
9 8 6 6 7 7 8 6 6 6 6 7 6 6 6 6 5 5 6 6 6 6 5 5 4 3 3 4 4 6 4 3 2 1 1 2 4 4 4 4 5 5 7 7 6 6 5 5 5 6 6 6 4 4 2 3 5 5 5 4 5 4 4 5 5 4 4 4 4 4 3 2 2 2 3 3 2 2 1 1 3 2 2 2 2
10 9 8 8 7 5 6 6 6 6 6 6 6 5 5 6 5 5 6 5 6 6 6 5 3 2 3 3 3 5 2 2 3 1 1 1 3 3 4 5 6 6 6 6 6 6 6 6 6 7 7 7 7 7 7 7 7 6 5 5 5 6 6 6 4 4 4 4 5 4 4 3 3 3 3 3 2 2 2 2 2 3 3 3 4
8 8 8 8 7 7 5 6 6 6 6 6 6 6 6 5 4 4 5 5 5 5 4 5 4 4 3 2 3 3 3 2 2 2 1 1 2 4 6 6 4 4 4 5 5 5 5 5 6 5 4 4 4 4 5 5 5 6 6 6 6 6 6 5 6 6 6 6 6 5 5 4 3 3 3 3 3 3 4 3 3 4 4 5 3
8 8 8 7 7 6 5 4 6 6 6 6 5 5 5 5 5 5 5 5 5 5 4 4 4 4 4 4 4 4 4 3 2 1 2 3 4 5 5 4 4 5 4 5 5 4 4 4 5 5 5 5 4 5 6 4 5 6 6 6 7 7 7 7 8 7 6 5 6 6 5 5 5 4 5 4 4 5 5 5 5 5 4 4 4
8 7 7 7 7 6 5 5 6 6 6 6 6 5 5 4 4 5 5 5 5 5 5 4 4 3 5 6 4 3 3 3 3 3 3 3 4 6 5 5 5 4 6 6 4 5 6 5 5 6 6 6 5 6 6 5 6 6 5 6 7 7 7 7 5 5 6 6 6 6 7 5 6 6 6 6 5 5 5 5 4 5 6 6 7
8 7 8 7 7 6 6 6 6 6 5 6 5 6 5 5 5 5 5 5 5 5 5 5 5 5 5 5 5 6 4 4 5 5 5 5 5 6 5 4 4 5 6 5 4 6 5 6 5 5 5 6 5 6 6 6 7 7 6 6 7 6 6 5 6 6 6 7 6 5 6 7 7 6 7 6 5 5 5 6 6 7 7 7 7
7 7 7 7 6 6 5 5 6 6 6 6 6 6 5 5 5 5 5 4 4 5 4 3 4 4 4 6 6 5 4 4 4 5 4 5 6 5 5 4 5 6 6 5 5 5 5 6 6 5 6 6 5 6 7 7 7 7 7 7 7 7 8 7 5 6 5 5 5 6 6 7 7 7 7 6 7 6 6 8 7 7 7 7 7
7 7 7 7 6 6 6 6 6 6 6 6 5 5 5 5 5 5 5 5 6 5 5 5 5 5 5 6 5 4 3 3 5 6 6 6 5 5 5 4 4 5 6 7 6 5 6 6 6 6 6 6 6 6 6 7 7 7 7 7 8 11 11 11 7 7 7 6 5 5 5 5 6 7 7 6 7 7 7 7 7 7 7 7 7
7 7 6 6 6 5 4 5 6 5 5 6 6 5 5 5 5 5 5 5 4 5 5 5 6 6 6 6 5 6 5 6 6 6 7 6 4 3 4 4 4 5 6 7 7 6 5 5 6 6 6 5 4 4 4 5 5 5 5 5 9 10 9 10 10 10 6 4 4 5 5 6 6 6 6 7 6 6 7 8 7 7 7 7 8
5 5 6 6 5 5 5 6 6 6 6 6 6 6 6 6 6 5 5 6 6 6 6 6 5 5 5 6 6 6 6 6 6 5 4 5 5 3 4 4 5 4 5 6 6 6 4 3 3 4 4 3 3 3 3 4 5 4 6 9 9 9 9 8 7 8 8 6 3 3 5 6 7 8 8 8 7 7 10 10 9 8 8 8 8
Wind_Direction
138 149 140 127 129 129 129 126 125 127 121 114 110 111 113 113 113 121 115 105 102 94 99 101 101 102 93 86 83 74 66 62 63 73 62 58 67 73 69 71 74 69 67 62 53 45 34 21 7 360 353 5 7 17 17 353 351 340 347 332 331 346 343 335 325 315 315 345 336 340 332 340 333 344 335 334 331 331 328 321 317 309 304 296 287
142 129 124 136 130 129 124 123 125 122 117 112 110 112 112 113 121 112 100 91 98 101 100 100 95 91 93 89 82 81 80 67 63 76 65 65 64 61 70 75 79 77 71 65 52 43 29 17 8 360 357 7 7 20 12 5 5 2 360 353 349 348 352 352 333 321 320 333 342 339 331 344 327 338 338 331 330 328 325 324 328 335 331 325 309
130 132 133 135 129 126 126 126 125 120 114 113 111 112 111 111 107 102 97 96 84 94 102 96 91 91 92 88 79 70 72 69 67 78 70 67 76 72 70 72 74 74 69 60 51 39 27 15 6 360 356 12 20 22 19 24 15 20 15 8 5 2 1 2 349 340 336 330 332 330 336 334 330 327 329 327 317 318 314 324 348 360 350 339 331
127 130 129 128 127 124 122 123 119 119 114 115 114 112 112 106 103 99 100 97 96 85 86 91 85 80 80 87 85 78 73 69 56 51 71 87 86 78 74 77 79 75 72 61 48 37 25 16 4 2 358 16 17 18 18 17 18 13 14 4 6 4 359 351 358 349 328 327 336 339 334 329 329 328 327 326 330 331 327 321 16 2 355 357 354
138 134 134 130 126 124 124 123 119 115 113 114 114 114 110 105 99 103 102 97 98 96 81 79 87 77 78 81 87 81 75 65 59 55 59 84 94 94 90 88 83 76 64 59 56 39 30 23 6 4 7 18 15 18 8 13 5 4 3 355 353 348 346 349 344 345 335 335 332 334 328 326 322 325 340 340 340 341 345 359 19 5 4 2 1
146 136 136 130 129 126 126 123 122 121 120 118 120 118 111 104 101 97 106 109 101 95 98 86 91 92 81 82 87 79 68 60 56 49 45 84 107 106 104 91 79 74 73 62 55 46 39 25 16 14 19 30 21 13 12 11 5 8 4 357 355 347 348 353 355 350 355 344 336 330 344 347 342 349 348 345 344 348 351 360 17 19 12 9 12
142 137 135 132 129 129 128 127 126 124 123 124 123 118 113 115 114 114 113 112 112 110 104 95 82 89 79 79 76 71 67 57 46 52 55 67 100 104 101 94 85 80 72 66 62 51 34 20 20 19 30 31 31 22 12 15 13 12 5 352 350 350 357 11 6 1 355 345 336 329 316 345 349 341 346 352 347 357 357 343 13 17 26 21 13
139 135 134 130 128 129 126 126 125 124 125 124 121 116 116 115 114 115 115 114 115 114 107 99 81 76 72 73 50 59 60 50 52 63 67 76 89 64 56 60 59 56 67 62 55 45 23 4 357 352 28 40 34 21 18 16 10 19 8 1 357 357 4 2 354 355 354 357 351 342 348 339 348 346 338 354 359 9 11 344 357 356 7 21 23
136 135 132 131 131 128 125 122 122 124 125 123 118 117 115 113 111 111 112 108 101 101 103 99 92 74 56 54 54 59 60 62 65 74 90 78 81 77 68 68 73 75 55 34 23 17 4 1 337 331 359 7 4 359 360 9 17 18 9 8 8 2 1 4 6 359 4 359 353 349 341 355 359 354 3 12 14 354 341 355 0 356 344 354 23
138 137 134 133 132 129 126 126 127 128 128 123 123 122 119 116 113 111 109 106 102 98 90 86 90 92 85 67 65 63 61 54 73 80 83 104 95 91 81 68 65 68 63 34 5 6 357 1 353 15 18 4 1 351 344 344 1 17 6 11 9 9 5 3 9 9 7 6 6 349 354 359 356 359 3 9 2 357 7 8 12 355 358 4 17
140 138 136 136 135 132 130 131 131 128 124 120 121 121 121 119 117 114 111 108 102 97 91 85 82 82 89 92 79 68 62 71 86 88 87 89 95 91 92 81 66 62 55 38 7 350 351 353 360 7 11 353 347 338 336 349 352 3 11 22 30 25 12 9 13 7 5 8 357 1 360 348 351 351 2 1 7 10 12 5 12 10 19 18 8
140 138 137 137 137 137 134 133 130 127 123 123 122 122 124 123 123 121 118 108 99 93 88 90 91 97 95 91 86 81 75 82 90 88 87 86 91 94 88 89 76 63 51 34 8 1 354 357 5 15 353 15 17 355 341 15 23 20 26 28 30 29 33 33 7 6 7 5 9 7 358 353 334 350 348 358 3 9 15 18 23 24 25 28 18
138 138 141 139 139 138 139 137 135 130 126 124 124 126 127 124 125 123 114 108 102 95 97 98 99 105 107 99 89 84 86 92 95 92 90 89 88 89 85 83 81 68 50 38 23 11 4 10 12 22 3 19 17 360 355 11 28 20 23 19 25 30 25 25 24 21 360 14 15 9 8 341 345 349 343 340 336 18 11 26 24 30 34 36 24
141 143 143 143 142 141 141 140 137 133 130 129 130 132 129 127 124 118 111 102 101 101 99 104 108 109 108 105 100 93 93 102 99 97 96 94 93 91 88 85 79 68 54 39 28 21 14 17 15 19 5 14 13 7 26 53 36 22 9 12 9 10 22 29 24 18 18 21 18 19 356 1 357 336 335 333 358 9 8 21 13 33 38 41 28
147 148 147 146 142 142 142 141 138 137 133 133 133 130 126 123 120 117 112 115 116 118 122 116 114 110 106 106 105 102 110 114 106 102 99 96 91 87 81 77 67 54 40 29 25 25 13 4 7 35 17 11 9 354 54 58 46 31 29 18 8 3 20 22 20 18 19 19 18 13 4 7 359 352 346 355 353 337 354 14 17 28 26 48 53
149 149 147 148 145 146 144 142 140 138 135 134 131 129 128 125 120 114 107 99 92 95 84 95 110 112 114 115 111 109 118 115 108 105 100 95 91 83 79 72 64 54 40 25 23 20 23 18 18 44 34 34 11 28 70 80 62 50 41 27 18 16 18 21 29 26 27 24 16 9 4 2 19 27 26 20 6 354 1 26 31 21 47 52 46
152 152 149 151 147 146 144 141 141 141 137 133 132 130 125 119 116 113 108 107 106 96 95 90 109 124 128 126 119 122 128 133 113 108 102 99 92 84 79 74 64 56 38 25 23 27 28 36 41 58 58 44 12 54 76 84 65 59 55 40 25 24 11 357 10 15 13 14 13 17 18 15 24 30 30 30 27 3 348 37 18 349 40 59 43
158 154 153 151 146 143 141 142 143 143 137 133 132 128 122 115 111 114 119 120 105 101 102 90 76 120 139 140 139 135 147 168 137 112 100 91 94 95 86 83 66 56 48 32 30 36 35 44 49 55 60 40 42 63 67 83 78 76 68 52 30 18 3 353 10 10 6 9 16 17 19 18 22 30 34 33 31 28 34 36 348 345 45 46 64
157 152 142 135 137 142 141 141 141 136 126 124 125 121 120 119 115 110 110 104 101 96 92 96 85 74 119 143 142 134 146 170 155 111 101 98 94 90 90 87 73 45 52 45 34 41 29 33 35 37 61 60 54 54 59 81 92 93 96 75 49 26 344 360 21 12 11 17 15 12 18 16 19 27 30 32 35 33 31 26 359 35 45 31 13
126 128 137 139 136 132 137 137 131 125 121 122 124 126 128 122 122 116 109 108 105 89 84 90 91 73 84 129 135 140 139 154 139 117 105 97 100 100 95 86 80 64 48 53 48 30 31 28 25 23 49 57 58 62 69 89 108 119 102 91 83 38 333 26 24 26 20 21 11 14 17 10 18 26 30 31 31 32 29 29 25 24 48 48 49
144 142 137 135 133 135 134 135 130 126 128 130 129 126 125 123 122 120 118 110 105 93 89 89 87 78 76 99 119 128 141 138 136 122 111 105 97 96 87 97 112 92 76 58 52 54 34 26 20 16 44 60 62 63 69 78 99 103 100 124 104 180 37 43 13 23 31 20 19 17 19 20 25 28 31 30 30 24 27 31 35 33 36 41 49
143 143 139 135 135 134 134 128 125 123 122 122 119 115 117 124 126 123 121 120 111 105 102 98 96 87 74 76 101 116 123 129 131 128 116 102 96 97 95 106 146 112 82 64 60 54 40 36 36 19 48 59 61 61 59 61 65 82 60 79 117 86 65 42 28 30 30 23 21 26 21 22 24 26 27 31 29 25 26 30 33 38 40 44 50
131 131 137 139 137 135 132 130 125 125 127 126 121 118 121 118 121 123 122 119 117 115 113 114 108 101 86 68 67 81 82 91 105 104 95 92 82 75 86 93 73 94 104 97 99 91 42 50 48 53 64 61 62 60 55 53 60 66 102 121 99 89 74 44 31 33 32 25 27 29 21 18 23 19 21 23 19 24 31 34 33 37 45 47 46
127 127 135 137 133 132 131 125 122 126 127 123 119 121 122 123 125 130 128 126 123 116 113 115 112 112 114 99 77 62 54 78 80 100 89 77 70 71 71 76 88 91 98 119 129 102 84 65 65 65 65 62 63 64 59 56 61 72 91 86 86 77 71 59 40 35 33 29 32 28 23 13 19 23 14 3 11 14 27 35 39 40 46 47 45
131 132 138 137 131 128 123 124 128 129 129 127 122 121 123 129 120 120 120 119 123 122 127 128 122 124 120 122 109 81 68 89 88 79 82 76 70 67 66 79 92 98 88 83 88 90 85 77 68 61 57 53 53 58 56 48 46 57 58 63 69 72 72 73 56 45 40 29 28 24 18 11 13 3 354 2 11 22 26 27 31 41 38 50 54
133 132 133 131 127 124 123 126 128 130 131 133 134 139 142 140 130 127 121 123 126 127 133 126 125 124 124 124 124 126 112 95 70 39 51 71 63 61 74 81 85 86 96 99 99 84 73 62 56 54 51 42 47 46 49 38 42 50 51 53 55 58 67 81 62 60 39 22 27 23 9 2 2 349 357 8 38 26 9 14 33 39 31 33 56
127 128 129 127 124 124 125 128 128 128 127 125 128 135 135 129 128 131 133 131 127 131 132 133 131 131 129 131 130 130 117 102 86 68 41 67 57 58 81 83 88 87 81 71 69 73 57 52 54 58 70 58 59 58 54 33 40 37 37 38 47 51 55 68 89 93 48 38 37 29 14 5 6 26 24 30 33 18 2 12 45 32 30 28 63
125 125 122 121 122 124 122 125 125 122 123 128 130 126 126 134 142 151 153 148 144 144 142 146 148 145 139 138 132 125 129 133 143 127 118 96 83 70 81 98 103 117 105 87 78 64 67 48 43 29 39 40 33 31 28 35 41 41 37 33 34 30 47 74 75 65 49 59 41 24 24 20 32 16 22 34 32 17 6 31 40 36 12 357 66
107 109 112 112 114 120 124 125 123 117 99 75 54 66 123 144 134 118 105 158 155 151 154 152 151 149 144 149 142 139 160 173 206 196 159 134 130 125 119 132 134 117 138 141 99 50 47 43 34 33 37 47 38 33 21 29 29 31 38 32 33 40 38 44 75 53 13 56 51 45 33 28 25 19 26 39 25 20 2 40 32 48 34 51 70
111 113 115 117 121 122 121 121 122 121 122 121 109 82 49 57 61 136 157 171 168 158 149 156 164 149 140 171 145 156 173 196 159 150 158 108 106 93 121 132 138 145 115 94 104 82 58 68 36 48 43 57 52 42 28 32 34 30 21 22 34 47 45 48 51 35 41 72 59 61 37 43 35 24 37 39 23 25 20 40 36 28 59 58 68
113 116 119 125 130 129 126 124 124 123 128 127 125 119 99 44 40 41 56 143 152 142 87 111 149 158 150 164 271 34 93 130 141 155 145 130 99 137 183 148 134 136 134 106 38 86 102 87 55 50 50 62 72 52 34 50 26 39 23 22 32 33 33 62 25 9 66 89 65 61 59 70 57 32 52 38 46 27 27 24 49 47 60 64 72
123 123 120 120 122 125 127 125 125 124 122 128 131 134 127 113 57 32 38 63 73 118 116 120 152 159 149 142 140 67 112 137 144 154 155 143 197 228 195 142 148 146 159 116 90 83 121 129 128 134 107 90 47 349 38 72 34 33 12 40 18 9 26 23 357 43 122 94 92 68 70 79 86 62 51 41 58 42 33 35 38 61 65 57 64
120 121 122 121 120 122 125 127 130 132 134 131 134 139 137 137 127 98 40 51 58 64 86 119 136 147 135 162 205 165 163 165 164 159 167 177 202 176 133 122 141 145 108 69 118 136 150 144 157 187 182 152 193 196 100 63 75 53 53 76 32 346 344 326 5 75 76 95 107 94 96 108 102 84 59 40 57 65 40 49 31 54 66 78 44
130 133 133 131 128 130 130 132 132 137 140 143 147 148 147 140 138 134 123 104 55 43 45 62 100 121 146 162 142 135 140 150 156 163 164 202 170 135 111 104 86 40 117 143 131 153 164 154 173 189 207 214 206 219 128 71 22 92 58 33 349 329 351 351 51 44 48 61 87 90 69 99 127 118 97 69 54 78 74 48 30 53 54 63 101
117 125 130 130 131 130 128 130 131 131 134 140 142 141 137 138 145 150 157 156 156 153 156 101 77 121 152 153 152 146 145 150 149 161 163 140 121 126 110 104 105 69 40 82 140 148 163 172 179 199 190 189 211 199 197 202 273 92 94 85 25 9 23 44 51 43 58 57 60 57 61 73 79 125 140 135 125 124 181 201 218 141 149 112 114
124 128 125 123 126 129 132 137 137 137 139 136 132 129 134 141 149 155 144 136 141 140 130 156 156 99 113 126 149 152 145 139 145 150 146 131 139 128 105 132 139 164 155 186 165 179 171 175 173 191 198 219 204 216 228 211 219 212 198 136 113 96 64 62 59 70 64 82 71 51 60 55 72 93 81 79 130 176 193 201 206 206 199 199 192
124 124 127 127 132 127 129 129 130 128 124 126 126 120 119 124 126 128 139 148 148 146 141 143 114 92 47 325 287 203 149 132 124 103 108 127 157 146 148 159 165 165 176 188 177 166 181 213 198 184 188 201 207 213 200 219 220 239 264 194 167 121 128 177 191 147 97 72 41 43 71 64 44 72 132 116 97 62 183 202 210 210 208 214 161
135 137 138 138 130 129 130 127 117 114 117 118 116 121 122 123 140 147 149 151 154 148 147 162 164 166 167 204 192 168 151 125 127 77 45 49 74 116 142 153 154 164 193 201 188 182 193 195 190 190 207 198 208 211 212 229 204 201 198 189 136 137 116 83 94 113 107 105 69 28 76 25 37 127 118 124 144 149 211 214 168 160 199 197 180
136 140 139 139 138 137 133 126 127 126 125 126 134 135 134 140 139 136 138 141 151 156 156 159 170 176 186 171 158 169 121 119 164 231 295 342 87 144 145 153 160 180 181 186 187 197 188 188 204 211 210 207 210 214 207 223 196 194 183 159 136 63 98 125 108 93 115 125 144 203 84 323 41 119 142 127 164 181 167 170 181 169 156 182 209
122 122 129 126 114 121 129 134 133 133 139 135 134 129 133 150 158 156 154 154 161 167 166 169 179 193 185 146 160 128 144 181 210 224 238 202 162 159 155 156 171 172 178 196 199 196 194 202 192 195 206 217 215 217 217 215 209 196 168 176 167 191 223 208 196 176 196 193 179 206 186 260 29 109 107 163 192 177 168 228 220 175 172 173 196
127 130 138 136 131 128 128 137 147 151 152 150 147 147 159 155 152 148 155 162 162 168 178 185 184 191 173 192 178 155 150 182 210 204 213 189 173 164 184 191 177 185 196 188 197 200 198 190 197 204 208 210 211 210 209 208 206 182 199 210 206 210 207 223 215 226 243 238 227 221 257 238 190 164 218 236 198 179 221 226 209 201 184 163 168
125 121 119 117 133 140 145 146 137 133 135 136 141 146 145 153 155 158 162 164 168 172 171 186 192 195 191 191 173 155 130 160 148 180 224 203 188 204 206 202 208 193 183 195 193 194 203 204 201 198 201 210 202 214 192 199 197 204 205 206 211 212 218 231 224 216 209 218 218 218 220 233 230 214 223 192 183 185 177 206 216 208 194 190 180
130 130 126 129 121 121 129 122 124 134 136 140 142 136 142 149 157 158 159 162 166 167 171 175 199 190 193 189 164 152 129 138 161 199 210 224 218 218 217 219 209 208 202 202 197 191 184 188 196 202 205 202 196 188 188 200 191 200 201 206 213 215 222 241 241 234 221 227 241 236 224 230 231 226 230 235 224 198 212 199 209 219 230 216 207
129 131 134 136 127 123 131 141 147 154 152 143 138 141 147 144 146 150 157 160 167 172 172 177 173 175 181 145 135 149 191 206 212 241 256 237 228 228 229 230 226 219 223 217 209 195 187 186 202 218 227 234 225 211 213 207 183 184 194 204 216 224 232 238 233 232 211 213 226 232 238 238 242 228 235 230 192 216 249 233 224 227 226 235 229
132 133 133 129 129 136 138 144 143 140 133 131 135 139 144 150 158 159 157 163 170 173 178 180 174 172 170 175 176 188 211 217 232 217 235 236 233 232 235 233 218 214 215 223 207 190 195 204 200 205 224 239 232 224 226 212 204 202 190 190 202 219 226 224 226 221 202 201 218 225 234 235 247 238 244 230 201 210 227 231 230 231 240 239 215
136 135 132 130 133 135 143 145 147 147 149 151 149 150 156 155 157 164 170 174 172 176 182 180 179 182 183 185 191 197 219 225 240 241 242 245 241 242 229 229 224 216 213 216 201 199 206 206 201 208 217 230 232 233 234 225 218 215 209 200 208 216 220 221 217 192 196 203 211 214 226 230 242 240 236 236 226 209 223 240 231 226 226 231 226
125 127 128 137 141 149 154 151 150 160 156 149 148 153 165 172 167 168 176 178 175 178 177 180 175 193 195 194 193 212 214 210 229 235 238 236 232 232 227 227 230 233 238 232 219 216 215 215 218 217 225 229 232 232 234 231 230 229 221 220 226 233 234 225 208 208 212 214 210 207 213 221 237 240 240 233 232 230 228 233 228 230 230 227 232
127 131 136 139 142 146 150 155 160 158 156 156 158 158 162 158 159 171 176 178 181 185 185 183 199 199 195 210 214 216 213 223 240 243 247 243 236 222 216 219 221 225 226 231 230 225 225 222 223 226 233 236 234 237 238 237 235 235 236 234 230 232 228 216 218 221 224 214 205 211 214 222 234 237 238 228 231 230 228 244 239 236 234 233 232
130 131 134 143 151 153 157 159 160 167 166 158 147 144 151 160 175 177 179 185 190 192 187 197 205 204 207 214 207 211 212 219 236 246 242 243 236 226 210 216 235 245 227 229 230 227 229 230 227 228 233 236 235 236 240 240 242 240 240 238 237 237 237 232 226 230 220 214 217 216 225 229 235 243 243 241 243 239 238 247 241 240 241 239 238
117 127 134 141 157 161 156 151 153 146 142 149 150 148 152 162 167 178 182 189 189 195 206 208 210 208 204 206 205 211 206 217 229 233 236 238 242 245 232 228 231 239 240 242 238 235 237 238 235 236 243 260 281 305 320 320 321 320 323 319 321 311 303 295 289 284 279 265 245 233 224 233 237 246 247 245 246 247 248 250 247 247 245 245 245
124 133 149 166 160 146 142 140 140 146 149 150 146 149 159 170 178 175 176 183 191 197 197 206 212 208 209 209 206 202 207 219 227 237 241 245 242 236 238 240 242 243 249 254 256 251 264 305 336 345 340 326 308 295 285 285 284 287 291 295 298 292 286 277 270 265 256 242 264 267 248 244 245 250 250 247 237 236 238 241 244 241 241 239 245